FW1210 Weather Reports


Display with metric or nautical units.
time (UTC)temp
F
wind
direction
speed
MPH
gust
MPH
rain 1hr
in
rain 24hr
in
rain mn
in
humidity
%
barometer
mb
20260503220508 67 285 3.0 6.0 0.00 0.00 0.00 36 1004.6
20260503215938 67 187 0.0 5.0 0.00 0.00 0.00 36 1004.6
20260503214938 67 303 1.0 7.0 0.00 0.00 0.00 36 1004.7
20260503214537 68 169 2.0 13.0 0.00 0.00 0.00 37 1004.5
20260503213938 67 239 1.0 13.0 0.00 0.00 0.00 36 1004.7
20260503213438 67 90 3.0 7.0 0.00 0.00 0.00 36 1004.9
20260503212938 67 323 1.0 6.0 0.00 0.00 0.00 37 1004.9
20260503212437 67 276 2.0 7.0 0.00 0.00 0.00 35 1004.9
20260503211937 67 219 1.0 10.0 0.00 0.00 0.00 37 1005.1
20260503210938 68 261 0.0 11.0 0.00 0.00 0.00 35 1005.0
20260503210507 67 305 2.0 11.0 0.00 0.00 0.00 37 1005.1
20260503210037 67 304 3.0 7.0 0.00 0.00 0.00 37 1005.1
20260503205438 68 247 1.0 8.0 0.00 0.00 0.00 38 1005.3
20260503204937 67 201 1.0 8.0 0.00 0.00 0.00 39 1005.3
20260503204537 66 202 0.0 8.0 0.00 0.00 0.00 39 1005.4
20260503203937 66 298 0.0 8.0 0.00 0.00 0.00 41 1005.6
20260503203437 66 181 0.0 15.0 0.00 0.00 0.00 42 1005.6
20260503202937 65 248 2.0 15.0 0.00 0.00 0.00 44 1005.7
20260503202437 65 294 0.0 9.0 0.00 0.00 0.00 43 1005.8
20260503202007 64 109 2.0 12.0 0.00 0.00 0.00 45 1006.1
20260503201507 64 219 1.0 18.0 0.00 0.00 0.00 43 1006.2
20260503201007 64 171 0.0 18.0 0.00 0.00 0.00 43 1006.4
20260503200507 65 219 0.0 14.0 0.00 0.00 0.00 43 1006.5
20260503200007 65 300 4.0 9.0 0.00 0.00 0.00 41 1006.5
20260503195506 65 138 3.0 10.0 0.00 0.00 0.00 41 1006.6
20260503195007 66 253 4.0 10.0 0.00 0.00 0.00 38 1006.6
20260503194507 66 215 2.0 15.0 0.00 0.00 0.00 37 1006.7
20260503194007 66 271 3.0 15.0 0.00 0.00 0.00 36 1006.6
20260503193507 67 256 3.0 9.0 0.00 0.00 0.00 37 1006.6
20260503193006 66 310 3.0 13.0 0.00 0.00 0.00 36 1006.6
20260503192506 67 223 6.0 13.0 0.00 0.00 0.00 35 1006.8
20260503192006 67 200 13.0 13.0 0.00 0.00 0.00 34 1006.7
20260503191506 67 271 1.0 11.0 0.00 0.00 0.00 35 1006.7
20260503191006 67 297 0.0 16.0 0.00 0.00 0.00 36 1006.7
20260503190507 66 238 4.0 16.0 0.00 0.00 0.00 34 1006.9
20260503190007 67 227 1.0 13.0 0.00 0.00 0.00 34 1006.9
20260503185506 67 227 3.0 13.0 0.00 0.00 0.00 35 1006.7
20260503185006 66 329 0.0 10.0 0.00 0.00 0.00 35 1007.0
20260503184506 66 234 0.0 10.0 0.00 0.00 0.00 36 1006.9
20260503184036 66 236 3.0 9.0 0.00 0.00 0.00 38 1007.0
20260503183507 66 259 3.0 10.0 0.00 0.00 0.00 38 1007.2
20260503183006 66 203 0.0 10.0 0.00 0.00 0.00 42 1007.1
20260503182506 65 208 5.0 16.0 0.00 0.00 0.00 40 1007.3
20260503182006 64 219 2.0 16.0 0.00 0.00 0.00 40 1007.3
20260503181506 64 221 2.0 10.0 0.00 0.00 0.00 44 1007.5
20260503181006 64 223 2.0 9.0 0.00 0.00 0.00 44 1007.4
20260503180505 63 277 1.0 9.0 0.00 0.00 0.00 44 1007.6
20260503180005 63 250 0.0 6.0 0.00 0.00 0.00 43 1007.5
20260503175505 62 173 1.0 9.0 0.00 0.00 0.00 46 1007.6
20260503175005 62 211 0.0 9.0 0.00 0.00 0.00 46 1007.7
20260503174505 61 165 4.0 10.0 0.00 0.00 0.00 46 1007.8
20260503174005 62 276 2.0 10.0 0.00 0.00 0.00 46 1007.9
20260503173505 62 268 1.0 7.0 0.00 0.00 0.00 45 1007.8
20260503173005 61 299 1.0 9.0 0.00 0.00 0.00 46 1008.1
20260503172505 60 179 4.0 9.0 0.00 0.00 0.00 46 1008.1
20260503172005 60 212 7.0 12.0 0.00 0.00 0.00 47 1008.2
20260503171605 60 140 2.0 12.0 0.00 0.00 0.00 48 1008.2
20260503171005 60 276 3.0 11.0 0.00 0.00 0.00 50 1008.5
20260503170505 58 196 3.0 9.0 0.00 0.00 0.00 52 1008.5
20260503151004 59 182 6.0 14.0 0.00 0.00 0.00 46 1009.8
20260503150504 58 288 2.0 8.0 0.00 0.00 0.00 47 1010.0
20260503131003 54 169 0.0 4.0 0.00 0.00 0.00 49 1010.6
20260503130503 53 207 0.0 8.0 0.00 0.00 0.00 50 1010.6
20260503110501 48 279 0.0 3.0 0.00 0.00 0.00 49 1010.7
20260503090501 48 213 0.0 7.0 0.00 0.00 0.00 47 1011.5
20260503081500 48 300 0.0 3.0 0.00 0.00 0.00 48 1012.1
20260503080959 48 275 0.0 7.0 0.00 0.00 0.00 48 1012.1
20260503080500 48 166 0.0 7.0 0.00 0.00 0.00 48 1012.1
20260503072459 46 202 0.0 3.0 0.00 0.00 0.00 51 1012.4
20260503071959 46 247 0.0 2.0 0.00 0.00 0.00 52 1012.5
20260503071459 46 246 0.0 2.0 0.00 0.00 0.00 53 1012.5
20260503070959 45 240 0.0 2.0 0.00 0.00 0.00 53 1012.4
20260503070459 45 240 0.0 2.0 0.00 0.00 0.00 54 1012.6
20260503054958 43 193 0.0 2.0 0.00 0.00 0.00 57 1013.0
20260503054458 43 189 0.0 3.0 0.00 0.00 0.00 58 1013.0
20260503053958 43 189 0.0 3.0 0.00 0.00 0.00 58 1013.1
20260503053458 43 186 0.0 0.0 0.00 0.00 0.00 59 1013.2
20260503052958 43 186 0.0 0.0 0.00 0.00 0.00 59 1013.2
20260503052458 43 186 0.0 1.0 0.00 0.00 0.00 60 1013.1
20260503052043 42 186 0.0 1.0 0.00 0.00 0.00 60 1013.2
20260503051458 42 186 0.0 3.0 0.00 0.00 0.00 60 1013.2
20260503050958 42 186 0.0 3.0 0.00 0.00 0.00 62 1013.2
20260503050458 42 202 0.0 0.0 0.00 0.00 0.00 63 1013.3
20260503045958 42 202 0.0 0.0 0.00 0.00 0.00 64 1013.2
20260503045458 41 202 0.0 0.0 0.00 0.00 0.00 65 1013.3
20260503044958 41 202 0.0 0.0 0.00 0.00 0.00 66 1013.3
20260503044457 41 202 0.0 0.0 0.00 0.00 0.00 67 1013.4
20260503043957 41 202 0.0 0.0 0.00 0.00 0.00 67 1013.3
20260503043457 41 202 0.0 0.0 0.00 0.00 0.00 68 1013.3
20260503042957 40 202 0.0 0.0 0.00 0.00 0.00 69 1013.5
20260503042458 40 202 0.0 0.0 0.00 0.00 0.00 69 1013.5
20260503041957 40 202 0.0 0.0 0.00 0.00 0.00 69 1013.5
20260503041457 40 202 0.0 1.0 0.00 0.00 0.00 70 1013.5
20260503040457 40 202 0.0 0.0 0.00 0.00 0.00 70 1013.6
20260503035957 40 202 0.0 0.0 0.00 0.00 0.00 70 1013.7
20260503035457 40 202 0.0 0.0 0.00 0.00 0.00 70 1013.6
20260503035042 40 202 0.0 0.0 0.00 0.00 0.00 70 1013.7
20260503034457 40 202 0.0 0.0 0.00 0.00 0.00 70 1013.8
20260503033957 40 202 0.0 0.0 0.00 0.00 0.00 69 1013.8
20260503033457 40 202 0.0 0.0 0.00 0.00 0.00 69 1013.8
20260503032957 40 202 0.0 0.0 0.00 0.00 0.00 69 1013.9
20260503032457 40 202 0.0 0.0 0.00 0.00 0.00 69 1013.8
20260503031957 40 202 0.0 1.0 0.00 0.00 0.00 69 1013.9
20260503031457 41 202 0.0 1.0 0.00 0.00 0.00 68 1014.0
20260503030957 41 202 0.0 1.0 0.00 0.00 0.00 68 1014.1
20260503030542 41 202 0.0 1.0 0.00 0.00 0.00 68 1014.1
20260503025956 41 202 0.0 2.0 0.00 0.00 0.00 67 1014.0
20260503025456 41 202 0.0 2.0 0.00 0.00 0.00 67 1014.2
20260503025027 42 202 0.0 0.0 0.00 0.00 0.00 66 1014.3
20260503024457 42 202 0.0 1.0 0.00 0.00 0.00 66 1014.3
20260503023956 42 202 0.0 1.0 0.00 0.00 0.00 66 1014.3
20260503023556 42 202 0.0 1.0 0.00 0.00 0.00 65 1014.3
20260503022956 42 202 0.0 1.0 0.00 0.00 0.00 64 1014.2
20260503022456 42 202 0.0 2.0 0.00 0.00 0.00 64 1014.3
20260503021956 43 202 0.0 2.0 0.00 0.00 0.00 63 1014.2
20260503021511 43 205 0.0 0.0 0.00 0.00 0.00 63 1014.2
20260503020956 43 205 0.0 1.0 0.00 0.00 0.00 62 1014.2
20260503020456 43 205 0.0 1.0 0.00 0.00 0.00 61 1014.2
20260503020056 44 205 0.0 2.0 0.00 0.00 0.00 60 1014.0
20260503015456 44 205 0.0 4.0 0.00 0.00 0.00 59 1014.2
20260503014956 44 205 0.0 4.0 0.00 0.00 0.00 59 1014.1
20260503014456 45 204 0.0 3.0 0.00 0.00 0.00 59 1014.2
20260503013956 45 201 0.0 3.0 0.00 0.00 0.00 59 1014.1
20260503013456 45 200 0.0 1.0 0.00 0.00 0.00 58 1014.0
20260503013056 45 199 0.0 2.0 0.00 0.00 0.00 58 1014.1
20260503011957 46 198 0.0 2.0 0.00 0.00 0.00 56 1014.0
20260503011455 46 198 1.0 2.0 0.00 0.00 0.00 56 1014.1
20260503010455 46 190 1.0 2.0 0.00 0.00 0.00 55 1014.1
20260503005955 47 190 0.0 3.0 0.00 0.00 0.00 54 1014.0
20260503005455 47 190 0.0 4.0 0.00 0.00 0.00 54 1013.9
20260503004955 47 193 0.0 4.0 0.00 0.00 0.00 53 1013.8
20260503004455 47 229 4.0 4.0 0.00 0.00 0.00 53 1014.0
20260503003955 48 209 0.0 2.0 0.00 0.00 0.00 53 1014.1
20260503003455 48 209 0.0 3.0 0.00 0.00 0.00 52 1014.1
20260503002955 48 197 0.0 5.0 0.00 0.00 0.00 51 1014.2
20260503002455 49 184 1.0 5.0 0.00 0.00 0.00 50 1014.1
20260503002055 49 180 0.0 5.0 0.00 0.00 0.00 49 1014.2
20260503001455 49 90 0.0 4.0 0.00 0.00 0.00 48 1014.3
20260503000955 49 213 0.0 6.0 0.00 0.00 0.00 49 1014.2
20260503000540 50 213 2.0 6.0 0.00 0.00 0.00 48 1014.4
20260502235955 50 219 0.0 4.0 0.00 0.00 0.00 48 1014.2
20260502235455 50 206 2.0 5.0 0.00 0.00 0.00 47 1014.3
20260502234955 50 222 1.0 5.0 0.00 0.00 0.00 48 1014.2
20260502234455 50 316 0.0 5.0 0.00 0.00 0.00 47 1014.3
20260502233954 50 215 1.0 7.0 0.00 0.00 0.00 46 1014.3
20260502233455 50 217 0.0 7.0 0.00 0.00 0.00 46 1014.4
20260502232954 50 184 3.0 5.0 0.00 0.00 0.00 45 1014.5
20260502232454 50 103 0.0 7.0 0.00 0.00 0.00 45 1014.6
20260502231954 50 229 4.0 7.0 0.00 0.00 0.00 45 1014.6
20260502231454 50 73 0.0 4.0 0.00 0.00 0.00 44 1014.7
20260502230954 51 98 1.0 4.0 0.00 0.00 0.00 45 1014.6
20260502230454 51 87 0.0 6.0 0.00 0.00 0.00 45 1014.8
20260502225954 51 112 3.0 6.0 0.00 0.00 0.00 44 1014.5
20260502225509 51 251 1.0 6.0 0.00 0.00 0.00 44 1014.5
20260502224954 51 222 1.0 6.0 0.00 0.00 0.00 44 1014.6
20260502224454 52 220 3.0 7.0 0.00 0.00 0.00 44 1014.6
20260502223954 52 204 3.0 7.0 0.00 0.00 0.00 43 1014.8
20260502223454 52 171 2.0 6.0 0.00 0.00 0.00 44 1014.7
20260502223054 52 155 1.0 6.0 0.00 0.00 0.00 44 1014.7
20260502222453 52 228 5.0 6.0 0.00 0.00 0.00 43 1014.8
20260502221953 52 211 3.0 5.0 0.00 0.00 0.00 44 1014.7
20260502221454 52 223 1.0 3.0 0.00 0.00 0.00 43 1014.8
20260502220953 52 152 1.0 5.0 0.00 0.00 0.00 46 1014.8